Tracking 25710 objects as of 5-Jul-2022
HD Live streaming from Space Station
objects crossing your sky now

FENGYUN 1C DEB

Track FENGYUN 1C DEB now!
10-day predictions


NORAD ID: 31027
Int'l Code: 1999-025BDV
Perigee: 774.2 km
Apogee: 881.6 km
Inclination: 99.0 °
Period: 101.3 minutes
Semi major axis: 7198 km
RCS: 0.0123 m2 (small)
Launch date: May 10, 1999
Source: People's Republic of China (PRC)
Launch site: Taiyaun Space Center, China (TSC)

Note: This is SATELLITE DEBRIS
aabbcc
Your satellite tracking list
Your tracking list is empty




NASA's NSSDC Master Catalog

Two Line Element Set (TLE):
1 31027U 99025BDV 22185.11033036  .00001715  00000-0  78426-3 0  9997
2 31027  99.0013 299.2262 0074590  28.4312 332.0903 14.21369905 37217
Source of the keplerian elements: AFSPC